Home   Weather   Kaufbeuren   Past weeks

Flag for Germany Past Weather in Kaufbeuren, Bavaria, Germany — Yesterday and Last 2 Weeks

52 °F


Feels Like: 50 °F
Forecast: 49 / 54 °F
Wind: 6 mph from Northeast

Location: Altenstadt Airport

Current Time: Oct 25, 2016 at 11:02:26 PM

Latest Report: Oct 25, 2016 at 9:20 PM

Visibility: N/A

Pressure: 30.24 "Hg (27.82 "Hg at 693m altitude)

Humidity: 94%

Dew Point: 50 °F

Location of KaufbeurenLocation

Past Weather in Kaufbeuren — Graph


Kaufbeuren Temperature Yesterday

Maximum temperature yesterday: 64 °F (at 3:20 PM)
Minimum temperature yesterday: 45 °F (at 6:20 AM)
Average temperature yesterday: 53 °F

High & Low Weather Summary for the Past Weeks

High64 °F (Oct 24, 3:20 PM)100% (Oct 11, 2:20 AM)30.24 "Hg (Oct 11, 2:20 AM)
Low30 °F (Oct 23, 3:20 AM)48% (Oct 14, 11:20 PM)29.68 "Hg (Oct 14, 10:20 PM)
Average45 °F86%30.01 "Hg
* Reported Oct 10 9:20 PM — Oct 25 9:20 PM, Kaufbeuren, Weather by CustomWeather, © 2016

Note: Actual official high and low records may vary slightly from our data, if they occured in-between our weather recording intervals... More about our weather records


Kaufbeuren Weather History for the Previous 24 Hours

Scroll right to see more
Time TempWeatherWind HumidityBarometerVisibility
9:20 PM
Tue, Oct 25
52 °FCool.6 mph94%30.24 "HgN/A
8:20 PM52 °FFog.2 mph100%30.24 "Hg1 mi
7:20 PM52 °FPartly cloudy.1 mph100%30.24 "Hg3 mi
6:20 PM54 °FLight rain. Partly cloudy.1 mph94%30.21 "Hg4 mi
5:20 PM54 °FLight rain. Broken clouds.3 mph94%30.21 "Hg5 mi
4:20 PM54 °FLight rain. Broken clouds.2 mph94%30.21 "Hg6 mi
3:20 PM55 °FLight rain. More clouds than sun.2 mph88%30.18 "HgN/A
2:20 PM55 °FLight rain. Broken clouds.6 mph88%30.18 "HgN/A
1:20 PM55 °FLight rain. Broken clouds.9 mph82%30.18 "HgN/A
12:20 PM55 °FBroken clouds.8 mph88%30.18 "HgN/A
11:20 AM54 °FLight rain. Partly sunny.2 mph94%30.18 "HgN/A
10:20 AM55 °FLight rain. Partly sunny.12 mph82%30.18 "HgN/A
9:20 AM54 °FLight rain. Partly sunny.13 mph94%30.18 "HgN/A
8:20 AM54 °FLight rain. Broken clouds.10 mph94%30.18 "HgN/A
7:48 AM54 °FRain. Mostly cloudy.10 mph94%30.18 "HgN/A
7:20 AM52 °FRain. Partly cloudy.7 mph94%30.15 "Hg4 mi
6:20 AM52 °FPartly cloudy.6 mph94%30.12 "HgN/A
5:20 AM54 °FLight rain. Partly cloudy.7 mph82%30.15 "HgN/A
4:20 AM55 °FCool.14 mph77%30.12 "HgN/A
3:20 AM50 °FCool.2 mph94%30.07 "HgN/A
2:20 AM46 °FCool.5 mph100%30.04 "HgN/A
1:20 AM48 °FCool.5 mph94%30.04 "HgN/A
12:20 AM52 °FCool.2 mph94%30.04 "HgN/A
11:20 PM
Mon, Oct 24
50 °FCool.2 mph100%30.01 "HgN/A
Weather by CustomWeather, © 2016

See weather overviewHow to use our weather pages